Location: Laura�t
(43.9341°N, 0.2497°E)
Time: 23:20:34
(UTC+00:00)

Cosmos 2278 Rocket - Pass Details

Date: 03 March 2021
Orbit: 841 x 845 km, 71.0° (Epoch: 17 April)

Event Time Altitude Azimuth Distance (km) Brightness Sun altitude
Rises 20:23:54 0° 338° (NNW) 3,413 5.9 -28.1°
Reaches altitude 10° 20:26:25 10° 342° (NNW) 2,474 5.0 -28.5°
Enters shadow 20:30:29 43° 11° (NNE) 1,182 2.9 -29.2°
